Regional Weather Roundup
Issued by NWS

Home | Current Version | Previous Version | Text Only | Print | Product List | Glossary On
Versions: 1 2 3 4 5 6 7 8 9 10 11 12 13 14 15 16 17 18 19 20 21 22 23 24 25 26 27 28
000
ASPQ40 PGUM 211012
RWRPQ
WEATHER ROUNDUP FOR THE MARIANAS AND MICRONESIA
NATIONAL WEATHER SERVICE TIYAN GU
800 PM GSST MON APR 21 2014

GUZ001>004-211100-
MARIANA ISLANDS-

CITY           SKY/WX    TMP DP  RH WIND       PRES   REMARKS
GUAM AIRPORT   PTCLDY    82  77  83 E5        29.93R HX  91
ANDERSEN AFB   MOCLDY    81  77  89 E9        29.94R
ROTA AIRPORT   PTCLDY    81  77  89 E6        29.94S
TINIAN AP      PTCLDY    81  75  83 E3        29.93R
SAIPAN AP      PTCLDY    81  77  89 E5        29.94R

$$

PMZ161-211100-
REPUBLIC OF PALAU-

CITY           SKY/WX    TMP DP  RH WIND       PRES   REMARKS
KOROR AP       MOCLDY    81  77  89 NE5       29.78R
KOROR WSO      PTCLDY    82  75  78 NW5       29.80R

$$

PMZ171>174-211100-
FEDERATED STATES OF MICRONESIA-

CITY           SKY/WX    TMP DP  RH WIND       PRES   REMARKS
YAP AIRPORT    PTCLDY    82  77  83 VRB6      29.82R HX  91
CHUUK AP       MOCLDY    82  75  78 NE10      29.84R
POHNPEI AP     NOT AVBL
POHNPEI WSO    CLOUDY    82  77  83 NE9       29.87R HX  91
KOSRAE AP      NOT AVBL

$$

PMZ181-211100-
REPUBLIC OF THE MARSHALL ISLANDS-

CITY           SKY/WX    TMP DP  RH WIND       PRES   REMARKS
KWAJALEIN AP   LGT RAIN  77  73  88 E12       29.90R
MAJURO AP      NOT AVBL
MAJURO WSO     LGT RAIN  79  77  94 E10       29.89R

$$




USA.gov is the U.S. government's official web portal to all federal, state and local government web resources and services.